| time (UTC) | temp F | wind direction | speed knots | gust knots | rain 1hr in | rain 24hr in | rain mn in | humidity % | barometer mb |
| 20260906225016 | 92 | 236 | 0.0 | 1.7 | 0.00 | 0.00 | 0.00 | 67 | 1009.6 |
| 20260906224531 | 92 | 193 | 0.0 | 2.6 | 0.00 | 0.00 | 0.00 | 66 | 1009.6 |
| 20260906224018 | 92 | 251 | 0.9 | 2.6 | 0.00 | 0.00 | 0.00 | 65 | 1009.5 |
| 20260906223505 | 92 | 288 | 0.9 | 2.6 | 0.00 | 0.00 | 0.00 | 66 | 1009.4 |
| 20260906223014 | 92 | 224 | 0.0 | 4.3 | 0.00 | 0.00 | 0.00 | 66 | 1009.4 |
| 20260906222509 | 92 | 264 | 0.9 | 5.2 | 0.00 | 0.00 | 0.00 | 66 | 1009.2 |
| 20260906222010 | 93 | 258 | 0.9 | 5.2 | 0.00 | 0.00 | 0.00 | 64 | 1009.1 |
| 20260906221521 | 93 | 244 | 0.9 | 3.5 | 0.00 | 0.00 | 0.00 | 65 | 1009.0 |
| 20260906221010 | 93 | 348 | 0.9 | 4.3 | 0.00 | 0.00 | 0.00 | 67 | 1009.0 |
| 20260906220513 | 92 | 153 | 0.9 | 5.2 | 0.00 | 0.00 | 0.00 | 68 | 1008.9 |
| 20260906220030 | 92 | 231 | 1.7 | 5.2 | 0.00 | 0.00 | 0.00 | 67 | 1008.9 |
| 20260906215516 | 92 | 188 | 1.7 | 7.0 | 0.00 | 0.00 | 0.00 | 66 | 1009.1 |
| 20260906215003 | 93 | 213 | 1.7 | 7.8 | 0.00 | 0.00 | 0.00 | 66 | 1009.1 |
| 20260906214508 | 93 | 260 | 1.7 | 7.8 | 0.00 | 0.00 | 0.00 | 65 | 1009.1 |
| 20260906214003 | 93 | 205 | 1.7 | 6.1 | 0.00 | 0.00 | 0.00 | 66 | 1009.1 |
| 20260906213504 | 93 | 43 | 1.7 | 6.1 | 0.00 | 0.00 | 0.00 | 65 | 1009.0 |
| 20260906213012 | 94 | 290 | 2.6 | 6.1 | 0.00 | 0.00 | 0.00 | 65 | 1009.1 |
| 20260906212507 | 94 | 192 | 1.7 | 7.0 | 0.00 | 0.00 | 0.00 | 64 | 1009.2 |
| 20260906212008 | 94 | 262 | 1.7 | 7.0 | 0.00 | 0.00 | 0.00 | 63 | 1009.2 |
| 20260906211518 | 94 | 252 | 2.6 | 6.1 | 0.00 | 0.00 | 0.00 | 59 | 1009.2 |
| 20260906211013 | 94 | 286 | 2.6 | 6.1 | 0.00 | 0.00 | 0.00 | 1009.2 | |
| 20260906210512 | 94 | 239 | 1.7 | 3.5 | 0.00 | 0.00 | 0.00 | 1009.3 | |
| 20260906210025 | 94 | 103 | 0.9 | 4.3 | 0.00 | 0.00 | 0.00 | 1009.2 | |
| 20260906205514 | 93 | 273 | 0.9 | 5.2 | 0.00 | 0.00 | 0.00 | 62 | 1009.3 |
| 20260906205013 | 93 | 161 | 1.7 | 5.2 | 0.00 | 0.00 | 0.00 | 62 | 1009.2 |
| 20260906204532 | 93 | 211 | 1.7 | 4.3 | 0.00 | 0.00 | 0.00 | 60 | 1009.3 |
| 20260906204003 | 93 | 197 | 1.7 | 7.0 | 0.00 | 0.00 | 0.00 | 59 | 1009.5 |
| 20260906203503 | 93 | 245 | 3.5 | 7.0 | 0.00 | 0.00 | 0.00 | 58 | 1009.6 |
| 20260906203010 | 94 | 283 | 2.6 | 7.0 | 0.00 | 0.00 | 0.00 | 1009.6 | |
| 20260906202504 | 93 | 195 | 0.9 | 5.2 | 0.00 | 0.00 | 0.00 | 1009.6 | |
| 20260906202007 | 94 | 232 | 2.6 | 6.1 | 0.00 | 0.00 | 0.00 | 60 | 1009.8 |
| 20260906201518 | 94 | 240 | 2.6 | 6.1 | 0.00 | 0.00 | 0.00 | 60 | 1009.8 |
| 20260906201010 | 93 | 144 | 1.7 | 4.3 | 0.00 | 0.00 | 0.00 | 61 | 1010.0 |
| 20260906200509 | 93 | 246 | 0.9 | 4.3 | 0.00 | 0.00 | 0.00 | 62 | 1010.1 |
| 20260906200021 | 93 | 258 | 1.7 | 4.3 | 0.00 | 0.00 | 0.00 | 64 | 1010.2 |
| 20260906195510 | 93 | 155 | 0.9 | 4.3 | 0.00 | 0.00 | 0.00 | 61 | 1010.2 |
| 20260906195014 | 93 | 250 | 1.7 | 4.3 | 0.00 | 0.00 | 0.00 | 60 | 1010.4 |
| 20260906194530 | 92 | 291 | 1.7 | 4.3 | 0.00 | 0.00 | 0.00 | 60 | 1010.5 |
| 20260906194015 | 93 | 320 | 1.7 | 4.3 | 0.00 | 0.00 | 0.00 | 61 | 1010.7 |
| 20260906193514 | 92 | 234 | 2.6 | 4.3 | 0.00 | 0.00 | 0.00 | 63 | 1010.7 |
| 20260906193007 | 92 | 282 | 1.7 | 4.3 | 0.00 | 0.00 | 0.00 | 63 | 1010.9 |
| 20260906192503 | 91 | 205 | 0.9 | 6.1 | 0.00 | 0.00 | 0.00 | 64 | 1011.0 |
| 20260906192007 | 91 | 249 | 0.9 | 7.8 | 0.00 | 0.00 | 0.00 | 65 | 1011.0 |
| 20260906191513 | 91 | 171 | 5.2 | 7.8 | 0.00 | 0.00 | 0.00 | 63 | 1011.2 |
| 20260906191007 | 92 | 157 | 1.7 | 4.3 | 0.00 | 0.00 | 0.00 | 67 | 1011.3 |
| 20260906190510 | 92 | 267 | 1.7 | 4.3 | 0.00 | 0.00 | 0.00 | 65 | 1011.3 |
| 20260906190023 | 91 | 302 | 0.9 | 5.2 | 0.00 | 0.02 | 0.00 | 65 | 1011.4 |
| 20260906185511 | 91 | 216 | 1.7 | 5.2 | 0.00 | 0.15 | 0.00 | 64 | 1011.5 |
| 20260906185013 | 91 | 192 | 2.6 | 5.2 | 0.00 | 0.26 | 0.00 | 66 | 1011.7 |
| 20260906184533 | 91 | 236 | 1.7 | 4.3 | 0.00 | 0.27 | 0.00 | 65 | 1011.7 |
| 20260906184014 | 91 | 187 | 2.6 | 4.3 | 0.00 | 0.27 | 0.00 | 66 | 1011.7 |
| 20260906183517 | 91 | 72 | 0.9 | 5.2 | 0.00 | 0.27 | 0.00 | 65 | 1011.7 |
| 20260906183034 | 91 | 229 | 0.0 | 6.1 | 0.00 | 0.27 | 0.00 | 68 | 1011.7 |
| 20260906182505 | 91 | 264 | 2.6 | 6.1 | 0.00 | 0.27 | 0.00 | 66 | 1011.9 |
| 20260906182015 | 91 | 252 | 2.6 | 6.1 | 0.00 | 0.27 | 0.00 | 65 | 1011.9 |
| 20260906181515 | 91 | 12 | 0.0 | 6.1 | 0.00 | 0.27 | 0.00 | 67 | 1012.0 |
| 20260906181007 | 90 | 207 | 2.6 | 6.1 | 0.00 | 0.27 | 0.00 | 66 | 1012.0 |
| 20260906180506 | 90 | 315 | 0.0 | 2.6 | 0.00 | 0.27 | 0.00 | 67 | 1012.2 |
| 20260906180023 | 90 | 110 | 0.0 | 1.7 | 0.00 | 0.27 | 0.00 | 67 | 1012.2 |
| 20260906175512 | 90 | 234 | 0.9 | 1.7 | 0.00 | 0.27 | 0.00 | 66 | 1012.2 |
| 20260906175011 | 90 | 276 | 0.0 | 3.5 | 0.00 | 0.27 | 0.00 | 69 | 1012.3 |
| 20260906174528 | 90 | 304 | 0.9 | 5.2 | 0.00 | 0.27 | 0.00 | 69 | 1012.3 |
| 20260906174012 | 90 | 180 | 1.7 | 7.0 | 0.00 | 0.27 | 0.00 | 67 | 1012.4 |
| 20260906173515 | 90 | 147 | 4.3 | 7.0 | 0.00 | 0.27 | 0.00 | 70 | 1012.5 |
| 20260906173030 | 90 | 90 | 0.9 | 3.5 | 0.00 | 0.27 | 0.00 | 67 | 1012.6 |
| 20260906172516 | 90 | 65 | 0.0 | 2.6 | 0.00 | 0.27 | 0.00 | 67 | 1012.7 |
| 20260906172017 | 89 | 298 | 0.9 | 4.3 | 0.00 | 0.27 | 0.00 | 67 | 1012.7 |
| 20260906171510 | 89 | 271 | 1.7 | 5.2 | 0.00 | 0.27 | 0.00 | 68 | 1012.8 |
| 20260906171003 | 89 | 198 | 0.0 | 6.1 | 0.00 | 0.27 | 0.00 | 72 | 1012.8 |
| 20260906170507 | 90 | 203 | 3.5 | 6.1 | 0.00 | 0.27 | 0.00 | 69 | 1012.8 |
| 20260906170018 | 89 | 221 | 0.0 | 6.1 | 0.00 | 0.27 | 0.00 | 68 | 1012.8 |
| 20260906165512 | 89 | 165 | 0.9 | 6.1 | 0.00 | 0.27 | 0.00 | 68 | 1012.9 |
| 20260906165015 | 89 | 190 | 2.6 | 4.3 | 0.00 | 0.27 | 0.00 | 68 | 1013.0 |
| 20260906164533 | 89 | 213 | 0.0 | 3.5 | 0.00 | 0.27 | 0.00 | 70 | 1012.9 |
| 20260906164012 | 89 | 195 | 0.9 | 4.3 | 0.00 | 0.27 | 0.00 | 70 | 1012.9 |
| 20260906163514 | 89 | 302 | 1.7 | 5.2 | 0.00 | 0.27 | 0.00 | 70 | 1013.1 |
| 20260906163029 | 89 | 260 | 2.6 | 5.2 | 0.00 | 0.27 | 0.00 | 72 | 1013.2 |
| 20260906162518 | 89 | 178 | 0.0 | 7.0 | 0.00 | 0.27 | 0.00 | 74 | 1013.2 |
| 20260906162016 | 89 | 278 | 0.9 | 7.0 | 0.00 | 0.27 | 0.00 | 72 | 1013.3 |
| 20260906161532 | 89 | 288 | 0.9 | 3.5 | 0.00 | 0.27 | 0.00 | 76 | 1013.2 |
| 20260906161014 | 88 | 214 | 0.0 | 4.3 | 0.00 | 0.27 | 0.00 | 72 | 1013.2 |
| 20260906160503 | 88 | 155 | 0.9 | 4.3 | 0.00 | 0.27 | 0.00 | 73 | 1013.2 |
| 20260906160017 | 88 | 220 | 1.7 | 4.3 | 0.00 | 0.27 | 0.00 | 75 | 1013.3 |
| 20260906155510 | 88 | 164 | 2.6 | 4.3 | 0.00 | 0.27 | 0.00 | 75 | 1013.2 |
| 20260906155007 | 88 | 291 | 1.7 | 3.5 | 0.00 | 0.27 | 0.00 | 73 | 1013.3 |
| 20260906154519 | 88 | 350 | 1.7 | 3.5 | 0.00 | 0.27 | 0.00 | 73 | 1013.3 |
| 20260906154011 | 88 | 298 | 0.9 | 3.5 | 0.00 | 0.27 | 0.00 | 75 | 1013.4 |
| 20260906153511 | 87 | 323 | 0.0 | 3.5 | 0.00 | 0.27 | 0.00 | 78 | 1013.4 |
| 20260906153028 | 87 | 185 | 0.9 | 3.5 | 0.00 | 0.27 | 0.00 | 74 | 1013.5 |
| 20260906152514 | 87 | 321 | 0.9 | 3.5 | 0.00 | 0.27 | 0.00 | 76 | 1013.4 |
| 20260906152015 | 86 | 234 | 0.9 | 3.5 | 0.00 | 0.27 | 0.00 | 78 | 1013.5 |
| 20260906151530 | 87 | 240 | 1.7 | 3.5 | 0.00 | 0.27 | 0.00 | 77 | 1013.4 |
| 20260906151018 | 86 | 207 | 0.9 | 3.5 | 0.00 | 0.27 | 0.00 | 81 | 1013.4 |
| 20260906150518 | 86 | 192 | 1.7 | 3.5 | 0.00 | 0.27 | 0.00 | 79 | 1013.3 |
| 20260906150033 | 86 | 233 | 0.9 | 3.5 | 0.00 | 0.27 | 0.00 | 82 | 1013.4 |
| 20260906145507 | 85 | 317 | 0.9 | 3.5 | 0.00 | 0.27 | 0.00 | 79 | 1013.4 |
| 20260906145007 | 85 | 222 | 0.0 | 3.5 | 0.00 | 0.27 | 0.00 | 80 | 1013.4 |
| 20260906144520 | 85 | 256 | 0.9 | 5.2 | 0.00 | 0.27 | 0.00 | 82 | 1013.5 |
| 20260906144011 | 85 | 236 | 1.7 | 5.2 | 0.00 | 0.27 | 0.00 | 83 | 1013.4 |
| 20260906143512 | 84 | 294 | 1.7 | 3.5 | 0.00 | 0.27 | 0.00 | 83 | 1013.4 |
| 20260906143025 | 84 | 360 | 0.9 | 3.5 | 0.00 | 0.27 | 0.00 | 84 | 1013.4 |
| 20260906142512 | 84 | 271 | 0.0 | 3.5 | 0.00 | 0.27 | 0.00 | 84 | 1013.5 |
| 20260906142016 | 83 | 317 | 0.9 | 3.5 | 0.00 | 0.27 | 0.00 | 85 | 1013.5 |
| 20260906141529 | 83 | 275 | 1.7 | 3.5 | 0.00 | 0.27 | 0.00 | 86 | 1013.5 |
| 20260906141014 | 83 | 290 | 0.9 | 5.2 | 0.00 | 0.27 | 0.00 | 88 | 1013.5 |
| 20260906140516 | 82 | 320 | 0.0 | 5.2 | 0.00 | 0.27 | 0.00 | 88 | 1013.5 |
| 20260906140032 | 82 | 292 | 2.6 | 3.5 | 0.00 | 0.27 | 0.00 | 88 | 1013.5 |
| 20260906135513 | 82 | 287 | 1.7 | 5.2 | 0.00 | 0.27 | 0.00 | 88 | 1013.5 |
| 20260906135007 | 82 | 291 | 2.6 | 5.2 | 0.00 | 0.27 | 0.00 | 89 | 1013.5 |
| 20260906134516 | 81 | 288 | 0.9 | 3.5 | 0.00 | 0.27 | 0.00 | 90 | 1013.5 |
| 20260906134012 | 81 | 313 | 1.7 | 3.5 | 0.00 | 0.27 | 0.00 | 90 | 1013.4 |
| 20260906133508 | 80 | 244 | 0.9 | 3.5 | 0.00 | 0.27 | 0.00 | 91 | 1013.4 |
| 20260906133023 | 80 | 326 | 2.6 | 3.5 | 0.00 | 0.27 | 0.00 | 91 | 1013.5 |
| 20260906132512 | 80 | 317 | 1.7 | 2.6 | 0.00 | 0.27 | 0.00 | 92 | 1013.6 |
| 20260906132012 | 79 | 244 | 1.7 | 2.6 | 0.00 | 0.27 | 0.00 | 92 | 1013.6 |
| 20260906131530 | 79 | 275 | 1.7 | 2.6 | 0.00 | 0.27 | 0.00 | 93 | 1013.6 |
| 20260906131015 | 79 | 262 | 1.7 | 2.6 | 0.00 | 0.27 | 0.00 | 94 | 1013.6 |
| 20260906130516 | 79 | 286 | 0.0 | 2.6 | 0.00 | 0.27 | 0.00 | 96 | 1013.5 |
| 20260906130034 | 78 | 338 | 0.9 | 3.5 | 0.00 | 0.27 | 0.00 | 96 | 1013.5 |
| 20260906125516 | 78 | 268 | 0.9 | 3.5 | 0.00 | 0.27 | 0.00 | 97 | 1013.5 |
| 20260906125015 | 78 | 309 | 0.0 | 0.0 | 0.00 | 0.27 | 0.00 | 97 | 1013.4 |
| 20260906124538 | 78 | 237 | 0.0 | 0.0 | 0.00 | 0.27 | 0.00 | 98 | 1013.4 |
| 20260906124007 | 77 | 237 | 0.0 | 0.0 | 0.00 | 0.27 | 0.00 | 98 | 1013.3 |
| 20260906123510 | 77 | 237 | 0.0 | 0.0 | 0.00 | 0.27 | 0.00 | 98 | 1013.3 |
| 20260906123031 | 76 | 237 | 0.0 | 0.0 | 0.00 | 0.27 | 0.00 | 98 | 1013.3 |
| 20260906122511 | 76 | 237 | 0.0 | 0.0 | 0.00 | 0.27 | 0.00 | 98 | 1013.2 |
| 20260906122012 | 75 | 76 | 0.0 | 0.0 | 0.00 | 0.27 | 0.00 | 98 | 1013.2 |
| 20260906121532 | 75 | 76 | 0.0 | 0.0 | 0.00 | 0.27 | 0.00 | 98 | 1013.1 |
| 20260906121014 | 74 | 76 | 0.0 | 0.0 | 0.00 | 0.27 | 0.00 | 98 | 1013.1 |
| 20260906120515 | 74 | 76 | 0.0 | 0.0 | 0.00 | 0.27 | 0.00 | 98 | 1013.0 |
| 20260906120031 | 74 | 76 | 0.0 | 0.0 | 0.00 | 0.27 | 0.00 | 98 | 1013.0 |
| 20260906115514 | 74 | 76 | 0.0 | 0.0 | 0.00 | 0.27 | 0.00 | 98 | 1013.0 |
| 20260906115002 | 74 | 76 | 0.0 | 0.0 | 0.00 | 0.27 | 0.00 | 97 | 1013.0 |
| 20260906114503 | 74 | 76 | 0.0 | 0.0 | 0.00 | 0.27 | 0.00 | 97 | 1013.0 |
| 20260906114003 | 74 | 76 | 0.0 | 0.0 | 0.00 | 0.27 | 0.00 | 97 | 1012.9 |
| 20260906113503 | 74 | 76 | 0.0 | 0.0 | 0.00 | 0.27 | 0.00 | 98 | 1012.9 |
| 20260906113004 | 73 | 76 | 0.0 | 0.0 | 0.00 | 0.27 | 0.00 | 98 | 1012.9 |
| 20260906112503 | 73 | 76 | 0.0 | 0.0 | 0.00 | 0.27 | 0.00 | 97 | 1012.8 |
| 20260906112003 | 73 | 76 | 0.0 | 0.0 | 0.00 | 0.27 | 0.00 | 97 | 1012.7 |
| 20260906111507 | 73 | 76 | 0.0 | 0.0 | 0.00 | 0.27 | 0.00 | 97 | 1012.7 |
| 20260906111003 | 73 | 76 | 0.0 | 0.0 | 0.00 | 0.27 | 0.00 | 97 | 1012.8 |
| 20260906110503 | 73 | 76 | 0.0 | 0.0 | 0.00 | 0.27 | 0.00 | 97 | 1012.7 |
| 20260906110005 | 73 | 76 | 0.0 | 0.0 | 0.00 | 0.27 | 0.00 | 97 | 1012.7 |
| 20260906105504 | 73 | 76 | 0.0 | 0.0 | 0.00 | 0.27 | 0.00 | 97 | 1012.7 |
| 20260906105005 | 73 | 76 | 0.0 | 0.0 | 0.00 | 0.27 | 0.00 | 97 | 1012.6 |
| 20260906104506 | 73 | 76 | 0.0 | 0.0 | 0.00 | 0.27 | 0.00 | 97 | 1012.7 |
| 20260906104002 | 73 | 76 | 0.0 | 0.0 | 0.00 | 0.27 | 0.00 | 97 | 1012.7 |
| 20260906103502 | 74 | 76 | 0.0 | 0.0 | 0.00 | 0.27 | 0.00 | 97 | 1012.5 |
| 20260906103006 | 74 | 76 | 0.0 | 0.0 | 0.00 | 0.27 | 0.00 | 97 | 1012.4 |
| 20260906102504 | 73 | 76 | 0.0 | 0.0 | 0.00 | 0.27 | 0.00 | 97 | 1012.4 |
| 20260906102003 | 73 | 76 | 0.0 | 0.0 | 0.00 | 0.27 | 0.00 | 97 | 1012.3 |
| 20260906101506 | 74 | 76 | 0.0 | 0.0 | 0.00 | 0.27 | 0.00 | 97 | 1012.3 |
| 20260906101003 | 74 | 76 | 0.0 | 0.0 | 0.00 | 0.27 | 0.00 | 98 | 1012.4 |
| 20260906100503 | 73 | 76 | 0.0 | 0.0 | 0.00 | 0.27 | 0.00 | 97 | 1012.4 |
| 20260906100014 | 73 | 76 | 0.0 | 0.0 | 0.00 | 0.27 | 0.00 | 97 | 1012.3 |
| 20260906095502 | 73 | 76 | 0.0 | 0.0 | 0.00 | 0.27 | 0.00 | 97 | 1012.2 |
| 20260906095003 | 73 | 76 | 0.0 | 0.0 | 0.00 | 0.27 | 0.00 | 97 | 1012.2 |
| 20260906094505 | 73 | 76 | 0.0 | 0.0 | 0.00 | 0.27 | 0.00 | 97 | 1012.1 |
| 20260906094003 | 74 | 76 | 0.0 | 0.0 | 0.00 | 0.27 | 0.00 | 97 | 1012.1 |
| 20260906093505 | 74 | 76 | 0.0 | 0.0 | 0.00 | 0.27 | 0.00 | 97 | 1012.1 |
| 20260906093008 | 74 | 76 | 0.0 | 0.0 | 0.00 | 0.27 | 0.00 | 97 | 1012.0 |
| 20260906092502 | 74 | 76 | 0.0 | 0.0 | 0.00 | 0.27 | 0.00 | 97 | 1012.0 |
| 20260906092004 | 74 | 76 | 0.0 | 0.0 | 0.00 | 0.27 | 0.00 | 97 | 1012.0 |
| 20260906091507 | 74 | 76 | 0.0 | 0.0 | 0.00 | 0.27 | 0.00 | 97 | 1012.0 |
| 20260906091003 | 74 | 76 | 0.0 | 0.0 | 0.00 | 0.27 | 0.00 | 97 | 1012.0 |
| 20260906090504 | 74 | 76 | 0.0 | 0.0 | 0.00 | 0.27 | 0.00 | 97 | 1011.9 |
| 20260906090006 | 74 | 76 | 0.0 | 0.0 | 0.00 | 0.27 | 0.00 | 97 | 1011.8 |
| 20260906085505 | 74 | 76 | 0.0 | 0.0 | 0.00 | 0.27 | 0.00 | 97 | 1011.8 |
| 20260906085003 | 74 | 76 | 0.0 | 0.0 | 0.00 | 0.27 | 0.00 | 97 | 1011.8 |
| 20260906084508 | 75 | 76 | 0.0 | 0.0 | 0.00 | 0.27 | 0.00 | 97 | 1011.8 |
| 20260906084005 | 75 | 76 | 0.0 | 0.0 | 0.00 | 0.27 | 0.00 | 97 | 1011.7 |
| 20260906083503 | 75 | 76 | 0.0 | 0.0 | 0.00 | 0.27 | 0.00 | 97 | 1011.7 |
| 20260906083006 | 75 | 76 | 0.0 | 0.0 | 0.00 | 0.27 | 0.00 | 97 | 1011.7 |
| 20260906082502 | 75 | 76 | 0.0 | 0.0 | 0.00 | 0.27 | 0.00 | 97 | 1011.6 |
| 20260906082002 | 75 | 76 | 0.0 | 0.0 | 0.00 | 0.27 | 0.00 | 97 | 1011.6 |
| 20260906081506 | 75 | 76 | 0.0 | 0.0 | 0.00 | 0.27 | 0.00 | 97 | 1011.6 |
| 20260906081003 | 74 | 76 | 0.0 | 0.0 | 0.00 | 0.27 | 0.00 | 97 | 1011.6 |
| 20260906080504 | 74 | 76 | 0.0 | 0.0 | 0.00 | 0.27 | 0.00 | 97 | 1011.5 |
| 20260906080008 | 74 | 76 | 0.0 | 0.0 | 0.00 | 0.27 | 0.00 | 97 | 1011.5 |
| 20260906075503 | 74 | 76 | 0.0 | 0.0 | 0.00 | 0.27 | 0.00 | 97 | 1011.6 |
| 20260906075004 | 74 | 76 | 0.0 | 0.0 | 0.00 | 0.27 | 0.00 | 97 | 1011.7 |
| 20260906074507 | 74 | 76 | 0.0 | 0.0 | 0.00 | 0.27 | 0.00 | 97 | 1011.6 |
| 20260906074003 | 74 | 76 | 0.0 | 0.0 | 0.00 | 0.27 | 0.00 | 97 | 1011.7 |
| 20260906073503 | 74 | 76 | 0.0 | 0.0 | 0.00 | 0.27 | 0.00 | 97 | 1011.8 |
| 20260906073008 | 74 | 76 | 0.0 | 0.0 | 0.00 | 0.27 | 0.00 | 97 | 1011.8 |
| 20260906072504 | 74 | 77 | 0.0 | 0.0 | 0.00 | 0.27 | 0.00 | 96 | 1011.8 |
| 20260906072003 | 75 | 287 | 0.0 | 0.0 | 0.00 | 0.27 | 0.00 | 96 | 1011.7 |
| 20260906071507 | 75 | 287 | 0.0 | 0.0 | 0.00 | 0.27 | 0.00 | 97 | 1011.6 |
| 20260906071002 | 75 | 287 | 0.0 | 0.0 | 0.00 | 0.27 | 0.00 | 97 | 1011.5 |
| 20260906070502 | 75 | 287 | 0.0 | 0.0 | 0.00 | 0.27 | 0.00 | 97 | 1011.5 |
| 20260906070010 | 75 | 287 | 0.0 | 0.0 | 0.00 | 0.27 | 0.00 | 97 | 1011.6 |
| 20260906065503 | 75 | 287 | 0.0 | 0.0 | 0.00 | 0.27 | 0.00 | 97 | 1011.8 |
| 20260906065003 | 75 | 287 | 0.0 | 0.0 | 0.00 | 0.27 | 0.00 | 97 | 1011.8 |
| 20260906064510 | 75 | 287 | 0.0 | 0.0 | 0.00 | 0.27 | 0.00 | 97 | 1011.8 |
| 20260906064004 | 76 | 287 | 0.0 | 0.0 | 0.00 | 0.27 | 0.00 | 97 | 1011.9 |
| 20260906063506 | 76 | 287 | 0.0 | 0.0 | 0.00 | 0.27 | 0.00 | 97 | 1011.9 |
| 20260906063011 | 75 | 287 | 0.0 | 0.0 | 0.00 | 0.27 | 0.00 | 97 | 1012.0 |
| 20260906062502 | 75 | 287 | 0.0 | 0.0 | 0.00 | 0.27 | 0.00 | 97 | 1012.0 |
| 20260906062003 | 75 | 287 | 0.0 | 0.0 | 0.00 | 0.27 | 0.00 | 97 | 1012.1 |
| 20260906061519 | 75 | 287 | 0.0 | 0.0 | 0.00 | 0.27 | 0.00 | 97 | 1012.0 |
| 20260906061004 | 75 | 287 | 0.0 | 0.0 | 0.00 | 0.27 | 0.00 | 97 | 1012.0 |
| 20260906060504 | 75 | 287 | 0.0 | 0.0 | 0.00 | 0.27 | 0.00 | 96 | 1012.1 |
| 20260906060009 | 75 | 287 | 0.0 | 0.0 | 0.00 | 0.27 | 0.00 | 97 | 1012.2 |
| 20260906055506 | 75 | 287 | 0.0 | 0.0 | 0.00 | 0.27 | 0.00 | 97 | 1012.2 |
| 20260906055004 | 76 | 287 | 0.0 | 0.0 | 0.00 | 0.27 | 0.00 | 97 | 1012.2 |
| 20260906054524 | 76 | 287 | 0.0 | 0.0 | 0.00 | 0.27 | 0.00 | 97 | 1012.2 |
| 20260906054003 | 75 | 287 | 0.0 | 0.0 | 0.00 | 0.27 | 0.00 | 97 | 1012.2 |
| 20260906053502 | 75 | 287 | 0.0 | 0.0 | 0.00 | 0.27 | 0.00 | 96 | 1012.3 |
| 20260906053008 | 75 | 287 | 0.0 | 0.0 | 0.00 | 0.27 | 0.00 | 96 | 1012.3 |
| 20260906052504 | 76 | 287 | 0.0 | 0.0 | 0.00 | 0.27 | 0.00 | 97 | 1012.4 |
| 20260906052010 | 76 | 287 | 0.0 | 0.0 | 0.00 | 0.27 | 0.00 | 97 | 1012.3 |
| 20260906051510 | 76 | 287 | 0.0 | 0.0 | 0.00 | 0.27 | 0.00 | 96 | 1012.1 |
| 20260906051007 | 76 | 287 | 0.0 | 0.0 | 0.00 | 0.27 | 0.00 | 96 | 1012.2 |
| 20260906050507 | 76 | 287 | 0.0 | 0.0 | 0.00 | 0.27 | 0.00 | 97 | 1012.2 |
| 20260906050010 | 76 | 287 | 0.0 | 0.0 | 0.00 | 0.27 | 0.00 | 97 | 1012.2 |
| 20260906045502 | 77 | 287 | 0.0 | 0.0 | 0.00 | 0.27 | 0.27 | 97 | 1012.2 |
| 20260906045003 | 77 | 287 | 0.0 | 0.0 | 0.00 | 0.28 | 0.27 | 97 | 1012.2 |
| 20260906044514 | 77 | 287 | 0.0 | 0.0 | 0.00 | 0.28 | 0.27 | 97 | 1012.2 |
| 20260906044003 | 77 | 287 | 0.0 | 0.0 | 0.00 | 0.28 | 0.27 | 97 | 1012.3 |
| 20260906043502 | 76 | 287 | 0.0 | 0.0 | 0.00 | 0.28 | 0.27 | 97 | 1012.3 |
| 20260906043021 | 76 | 287 | 0.0 | 0.0 | 0.00 | 0.28 | 0.27 | 97 | 1012.3 |
| 20260906042504 | 76 | 287 | 0.0 | 0.0 | 0.00 | 0.28 | 0.27 | 96 | 1012.5 |
| 20260906042004 | 76 | 287 | 0.0 | 0.0 | 0.00 | 0.28 | 0.27 | 96 | 1012.6 |
| 20260906041514 | 76 | 287 | 0.0 | 0.0 | 0.00 | 0.28 | 0.27 | 96 | 1012.5 |
| 20260906041007 | 76 | 287 | 0.0 | 0.0 | 0.00 | 0.28 | 0.27 | 96 | 1012.6 |
| 20260906040507 | 76 | 287 | 0.0 | 0.0 | 0.00 | 0.28 | 0.27 | 96 | 1012.7 |
| 20260906040013 | 76 | 287 | 0.0 | 0.0 | 0.00 | 0.28 | 0.27 | 96 | 1012.7 |
| 20260906035503 | 76 | 287 | 0.0 | 0.0 | 0.00 | 0.28 | 0.27 | 97 | 1012.8 |
| 20260906035003 | 76 | 287 | 0.0 | 0.0 | 0.00 | 0.28 | 0.27 | 96 | 1012.9 |
| 20260906034514 | 76 | 287 | 0.0 | 0.0 | 0.00 | 0.28 | 0.27 | 96 | 1013.0 |
| 20260906034002 | 76 | 287 | 0.0 | 0.0 | 0.00 | 0.28 | 0.27 | 96 | 1012.9 |
| 20260906033502 | 76 | 287 | 0.0 | 0.0 | 0.00 | 0.28 | 0.27 | 96 | 1012.9 |
| 20260906033007 | 76 | 287 | 0.0 | 0.0 | 0.00 | 0.28 | 0.27 | 96 | 1013.0 |
| 20260906032503 | 77 | 287 | 0.0 | 0.0 | 0.00 | 0.28 | 0.27 | 96 | 1013.1 |
| 20260906032004 | 77 | 287 | 0.0 | 0.0 | 0.00 | 0.28 | 0.27 | 96 | 1013.1 |
| 20260906031512 | 77 | 287 | 0.0 | 0.0 | 0.00 | 0.28 | 0.27 | 96 | 1013.1 |
| 20260906031004 | 77 | 287 | 0.0 | 0.0 | 0.00 | 0.28 | 0.27 | 96 | 1013.1 |
| 20260906030503 | 77 | 287 | 0.0 | 0.0 | 0.00 | 0.28 | 0.27 | 96 | 1013.1 |
| 20260906030015 | 77 | 287 | 0.0 | 0.0 | 0.00 | 0.28 | 0.27 | 96 | 1013.1 |
| 20260906025506 | 77 | 287 | 0.0 | 0.0 | 0.00 | 0.28 | 0.27 | 96 | 1013.1 |
| 20260906025008 | 77 | 287 | 0.0 | 0.0 | 0.00 | 0.28 | 0.27 | 96 | 1013.2 |
| 20260906024514 | 77 | 287 | 0.0 | 0.0 | 0.00 | 0.28 | 0.27 | 96 | 1013.2 |
| 20260906024007 | 77 | 287 | 0.0 | 0.0 | 0.00 | 0.28 | 0.27 | 96 | 1013.1 |
| 20260906023506 | 78 | 287 | 0.0 | 0.0 | 0.00 | 0.28 | 0.27 | 96 | 1013.2 |
| 20260906023015 | 77 | 287 | 0.0 | 0.0 | 0.00 | 0.28 | 0.27 | 96 | 1013.2 |
| 20260906022503 | 77 | 287 | 0.0 | 0.0 | 0.00 | 0.28 | 0.27 | 95 | 1013.0 |
| 20260906022003 | 78 | 287 | 0.0 | 0.0 | 0.00 | 0.28 | 0.27 | 96 | 1012.9 |
| 20260906021519 | 78 | 287 | 0.0 | 0.0 | 0.00 | 0.28 | 0.27 | 96 | 1012.8 |
| 20260906021004 | 78 | 287 | 0.0 | 0.0 | 0.00 | 0.28 | 0.27 | 96 | 1012.7 |
| 20260906020505 | 78 | 287 | 0.0 | 0.0 | 0.00 | 0.28 | 0.27 | 96 | 1012.6 |
| 20260906020020 | 78 | 287 | 0.0 | 0.0 | 0.00 | 0.28 | 0.27 | 95 | 1012.5 |
| 20260906015507 | 78 | 287 | 0.0 | 0.0 | 0.00 | 0.28 | 0.27 | 95 | 1012.3 |
| 20260906015007 | 78 | 287 | 0.0 | 0.0 | 0.00 | 0.28 | 0.27 | 95 | 1012.3 |
| 20260906014519 | 78 | 287 | 0.0 | 0.0 | 0.00 | 0.28 | 0.27 | 95 | 1012.3 |
| 20260906014008 | 78 | 287 | 0.0 | 0.0 | 0.00 | 0.28 | 0.27 | 95 | 1012.2 |
| 20260906013508 | 78 | 287 | 0.0 | 0.0 | 0.00 | 0.28 | 0.27 | 95 | 1012.2 |
| 20260906013032 | 78 | 287 | 0.0 | 0.0 | 0.00 | 0.28 | 0.27 | 95 | 1012.1 |
| 20260906012506 | 78 | 287 | 0.0 | 0.0 | 0.00 | 0.28 | 0.27 | 95 | 1012.0 |
| 20260906012003 | 78 | 287 | 0.0 | 0.0 | 0.00 | 0.28 | 0.27 | 94 | 1011.9 |
| 20260906011508 | 78 | 287 | 0.0 | 0.0 | 0.00 | 0.28 | 0.27 | 94 | 1011.8 |
| 20260906011002 | 78 | 287 | 0.0 | 0.0 | 0.00 | 0.28 | 0.27 | 94 | 1011.7 |
| 20260906010505 | 79 | 287 | 0.0 | 0.0 | 0.00 | 0.28 | 0.27 | 94 | 1011.7 |
| 20260906010016 | 79 | 287 | 0.0 | 0.0 | 0.00 | 0.28 | 0.27 | 94 | 1011.6 |
| 20260906005507 | 79 | 287 | 0.0 | 0.0 | 0.00 | 0.28 | 0.27 | 94 | 1011.5 |
| 20260906005009 | 79 | 287 | 0.0 | 0.0 | 0.00 | 0.28 | 0.27 | 94 | 1011.4 |
| 20260906004517 | 79 | 287 | 0.0 | 0.0 | 0.00 | 0.28 | 0.27 | 94 | 1011.4 |
| 20260906004006 | 79 | 287 | 0.0 | 0.9 | 0.00 | 0.28 | 0.27 | 94 | 1011.5 |
| 20260906003508 | 79 | 240 | 0.0 | 0.9 | 0.00 | 0.28 | 0.27 | 94 | 1011.5 |
| 20260906003022 | 79 | 232 | 0.0 | 0.9 | 0.00 | 0.28 | 0.27 | 94 | 1011.5 |
| 20260906002506 | 79 | 232 | 0.0 | 0.0 | 0.00 | 0.28 | 0.27 | 94 | 1011.7 |
| 20260906002011 | 80 | 232 | 0.0 | 0.0 | 0.00 | 0.28 | 0.27 | 93 | 1011.8 |
| 20260906001520 | 80 | 232 | 0.0 | 0.0 | 0.00 | 0.28 | 0.27 | 93 | 1011.8 |
| 20260906001003 | 80 | 232 | 0.0 | 1.7 | 0.00 | 0.28 | 0.27 | 93 | 1011.9 |
| 20260906000503 | 80 | 232 | 0.0 | 1.7 | 0.00 | 0.28 | 0.27 | 92 | 1011.8 |
| 20260906000023 | 80 | 232 | 0.0 | 0.0 | 0.00 | 0.28 | 0.27 | 92 | 1011.8 |
| 20260905235505 | 80 | 156 | 0.0 | 0.0 | 0.00 | 0.28 | 0.27 | 92 | 1011.9 |
| 20260905235007 | 80 | 156 | 0.0 | 0.0 | 0.00 | 0.28 | 0.27 | 92 | 1011.9 |
| 20260905234517 | 80 | 156 | 0.0 | 0.0 | 0.00 | 0.28 | 0.27 | 92 | 1011.9 |
| 20260905234008 | 80 | 156 | 0.0 | 0.0 | 0.00 | 0.28 | 0.27 | 92 | 1011.9 |
| 20260905233510 | 81 | 156 | 0.0 | 0.0 | 0.00 | 0.28 | 0.27 | 91 | 1011.9 |
| 20260905233022 | 81 | 156 | 0.0 | 0.0 | 0.00 | 0.28 | 0.27 | 91 | 1011.8 |
| 20260905232509 | 81 | 156 | 0.0 | 0.0 | 0.00 | 0.28 | 0.27 | 90 | 1011.9 |
| 20260905232008 | 81 | 156 | 0.0 | 0.0 | 0.00 | 0.28 | 0.27 | 91 | 1011.9 |
| 20260905231519 | 81 | 156 | 0.0 | 0.0 | 0.00 | 0.28 | 0.27 | 91 | 1012.0 |
| 20260905231009 | 81 | 156 | 0.0 | 0.0 | 0.00 | 0.28 | 0.27 | 91 | 1011.9 |
| 20260905230511 | 81 | 156 | 0.0 | 0.0 | 0.00 | 0.28 | 0.27 | 89 | 1011.9 |
| 20260905230019 | 81 | 156 | 0.0 | 0.0 | 0.00 | 0.28 | 0.27 | 90 | 1012.0 |
| 20260905225503 | 81 | 320 | 0.0 | 0.0 | 0.00 | 0.28 | 0.27 | 89 | 1011.9 |